Date String (YYYY-MM-DD hh:mm:ss) UTC,Instrument flags,Ambient pressure (hPa),Sample flow (lpm),Bypass flow (lpm),Sample temperature (°C),Ambient temperature (°C),ASC tube jacket temperature (°C),LED temperature (°C),Box temperature (°C),Sample RH (%),Span deviation,Mass concentration (μg/m³),Mass concentration (μg/m³),Mass concentration (μg/m³)
DateTimeUTC,F1_M11,P_M11,Q1_M11,Q2_M11,T1_M11,T2_M11,T3_M11,T4_M11,T5_M11,U1_M11,ZSPAN_M11,X0_M11,X2_M11,X1_M11
2022-04-09 05:00:00,,0823.4,4.99,0.00,28.7,27.8,00.0,37.8,30.4,07.7,0000.0,0008.40,0003.05,0001.58
2022-04-09 05:01:00,,0823.4,4.99,0.00,28.7,27.8,00.0,37.8,30.4,07.7,0000.0,0008.32,0003.02,0001.58
2022-04-09 05:02:00,,0823.4,5.01,0.00,28.7,27.8,00.0,37.8,30.4,07.7,0000.0,0007.80,0003.03,0001.59
2022-04-09 05:03:00,,0823.3,4.99,0.00,28.7,27.8,00.0,37.8,30.4,07.7,0000.0,0007.39,0003.02,0001.59
2022-04-09 05:04:00,,0823.3,5.02,0.00,28.7,27.8,00.0,37.8,30.4,07.7,0000.0,0007.36,0003.04,0001.59
2022-04-09 05:05:00,,0823.3,4.99,0.00,28.7,27.8,00.0,37.8,30.4,07.7,0000.0,0007.25,0003.02,0001.59
2022-04-09 05:06:00,,0823.3,4.99,0.00,28.7,27.8,00.0,37.7,30.4,07.7,0000.0,0006.99,0002.93,0001.59
2022-04-09 05:07:00,,0823.2,5.02,0.00,28.7,27.8,00.0,37.7,30.3,07.7,0000.0,0006.93,0002.90,0001.59
2022-04-09 05:08:00,,0823.2,4.99,0.00,28.7,27.8,00.0,37.7,30.4,07.7,0000.0,0006.66,0002.93,0001.61
2022-04-09 05:09:00,,0823.3,4.99,0.00,28.6,27.8,00.0,37.7,30.3,07.7,0000.0,0005.87,0002.93,0001.61
2022-04-09 05:10:00,,0823.3,5.01,0.00,28.6,27.7,00.0,37.7,30.3,07.7,0000.0,0006.08,0002.94,0001.60
2022-04-09 05:11:00,,0823.3,4.99,0.00,28.6,27.7,00.0,37.7,30.4,07.7,0000.0,0006.49,0002.94,0001.61
2022-04-09 05:12:00,,0823.3,4.99,0.00,28.6,27.8,00.0,37.7,30.4,07.7,0000.0,0006.62,0002.97,0001.61
2022-04-09 05:13:00,,0823.3,5.00,0.00,28.6,27.8,00.0,37.7,30.4,07.7,0000.0,0006.56,0002.99,0001.62
2022-04-09 05:14:00,,0823.3,5.00,0.00,28.7,27.8,00.0,37.7,30.4,07.7,0000.0,0006.47,0002.96,0001.62
2022-04-09 05:15:00,,0823.3,5.01,0.00,28.6,27.8,00.0,37.7,30.4,07.7,0000.0,0006.62,0003.02,0001.61
2022-04-09 05:16:00,,0823.3,4.99,0.00,28.6,27.8,00.0,37.7,30.4,07.7,0000.0,0006.78,0003.01,0001.61
2022-04-09 05:17:00,,0823.2,4.99,0.00,28.6,27.8,00.0,37.7,30.4,07.7,0000.0,0006.95,0003.09,0001.64
2022-04-09 05:18:00,,0823.3,4.99,0.00,28.6,27.7,00.0,37.7,30.3,07.7,0000.0,0007.33,0003.15,0001.65
2022-04-09 05:19:00,,0823.2,5.02,0.00,28.6,27.7,00.0,37.6,30.3,07.7,0000.0,0007.43,0003.18,0001.66
2022-04-09 05:20:00,,0823.2,5.00,0.00,28.6,27.7,00.0,37.6,30.3,07.7,0000.0,0007.64,0003.24,0001.66
2022-04-09 05:21:00,,0823.1,4.99,0.00,28.5,27.7,00.0,37.6,30.3,07.7,0000.0,0007.76,0003.28,0001.67
2022-04-09 05:22:00,,0823.1,5.01,0.00,28.5,27.7,00.0,37.6,30.2,07.7,0000.0,0007.40,0003.23,0001.67
2022-04-09 05:23:00,,0823.1,5.00,0.00,28.5,27.6,00.0,37.6,30.2,07.7,0000.0,0007.40,0003.24,0001.66
2022-04-09 05:24:00,,0823.2,4.99,0.00,28.5,27.6,00.0,37.6,30.2,07.7,0000.0,0007.50,0003.27,0001.67
2022-04-09 05:25:00,,0823.1,5.00,0.00,28.5,27.6,00.0,37.6,30.2,07.7,0000.0,0007.57,0003.29,0001.66
2022-04-09 05:26:00,,0823.1,5.01,0.00,28.5,27.6,00.0,37.6,30.2,07.8,0000.0,0007.49,0003.25,0001.66
2022-04-09 05:27:00,,0823.1,4.99,0.00,28.4,27.6,00.0,37.6,30.1,07.8,0000.0,0007.49,0003.28,0001.66
2022-04-09 05:28:00,,0823.1,4.99,0.00,28.4,27.6,00.0,37.5,30.2,07.8,0000.0,0007.56,0003.29,0001.66
2022-04-09 05:29:00,,0823.1,5.01,0.00,28.4,27.6,00.0,37.5,30.1,07.8,0000.0,0007.42,0003.28,0001.65
2022-04-09 05:30:00,,0823.1,5.00,0.00,28.4,27.6,00.0,37.5,30.1,07.8,0000.0,0007.24,0003.25,0001.66
2022-04-09 05:31:00,,0823.1,5.00,0.00,28.4,27.6,00.0,37.5,30.1,07.9,0000.0,0007.16,0003.22,0001.67
2022-04-09 05:32:00,,0823.1,4.99,0.00,28.4,27.6,00.0,37.5,30.2,07.8,0000.0,0006.93,0003.19,0001.68
2022-04-09 05:33:00,,0823.1,5.01,0.00,28.5,27.6,00.0,37.5,30.2,07.8,0000.0,0006.66,0003.16,0001.69
2022-04-09 05:34:00,,0823.1,4.99,0.00,28.5,27.6,00.0,37.5,30.3,07.8,0000.0,0006.53,0003.15,0001.69
2022-04-09 05:35:00,,0823.1,4.99,0.00,28.5,27.7,00.0,37.5,30.3,07.8,0000.0,0006.57,0003.13,0001.67
2022-04-09 05:36:00,,0823.1,4.99,0.00,28.5,27.7,00.0,37.5,30.3,07.8,0000.0,0006.55,0003.09,0001.67
2022-04-09 05:37:00,,0823.1,5.00,0.00,28.5,27.7,00.0,37.5,30.3,07.8,0000.0,0006.51,0003.08,0001.67
2022-04-09 05:38:00,,0823.1,5.01,0.00,28.5,27.7,00.0,37.5,30.3,07.8,0000.0,0006.47,0003.06,0001.67
2022-04-09 05:39:00,,0823.2,5.01,0.00,28.5,27.8,00.0,37.5,30.3,07.8,0000.0,0006.33,0003.04,0001.68
2022-04-09 05:40:00,,0823.2,5.00,0.00,28.6,27.8,00.0,37.5,30.3,07.8,0000.0,0006.21,0003.03,0001.69
2022-04-09 05:41:00,,0823.2,4.99,0.00,28.6,27.8,00.0,37.5,30.4,07.8,0000.0,0006.07,0003.03,0001.69
2022-04-09 05:42:00,,0823.1,5.00,0.00,28.6,27.8,00.0,37.5,30.4,07.7,0000.0,0006.00,0002.99,0001.67
2022-04-09 05:43:00,,0823.1,5.01,0.00,28.6,27.8,00.0,37.5,30.4,07.7,0000.0,0005.75,0002.93,0001.64
2022-04-09 05:44:00,,0823.1,5.01,0.00,28.6,27.8,00.0,37.5,30.4,07.6,0000.0,0005.97,0003.00,0001.62
2022-04-09 05:45:00,,0823.1,5.00,0.00,28.6,27.9,00.0,37.5,30.4,07.6,0000.0,0006.33,0003.07,0001.61
2022-04-09 05:46:00,,0823.1,5.00,0.00,28.6,27.9,00.0,37.5,30.4,07.6,0000.0,0006.12,0002.98,0001.59
2022-04-09 05:47:00,,0823.1,5.00,0.00,28.7,27.8,00.0,37.5,30.5,07.6,0000.0,0005.69,0002.84,0001.58
2022-04-09 05:48:00,,0823.1,5.02,0.00,28.6,27.8,00.0,37.5,30.5,07.6,0000.0,0005.66,0002.86,0001.57
2022-04-09 05:49:00,,0823.1,5.00,0.00,28.6,27.8,00.0,37.5,30.4,07.6,0000.0,0005.56,0002.85,0001.56
2022-04-09 05:50:00,,0823.1,5.00,0.00,28.6,27.8,00.0,37.6,30.4,07.5,0000.0,0005.59,0002.85,0001.55
2022-04-09 05:51:00,,0823.1,4.99,0.00,28.6,27.9,00.0,37.6,30.5,07.5,0000.0,0005.65,0002.85,0001.52
2022-04-09 05:52:00,,0823.0,4.99,0.00,28.7,27.9,00.0,37.6,30.5,07.4,0000.0,0005.86,0002.87,0001.51
2022-04-09 05:53:00,,0823.0,5.00,0.00,28.7,27.9,00.0,37.6,30.5,07.4,0000.0,0005.96,0002.86,0001.51
2022-04-09 05:54:00,,0823.0,5.01,0.00,28.7,27.9,00.0,37.6,30.5,07.4,0000.0,0006.68,0002.81,0001.51
2022-04-09 05:55:00,,0823.0,5.01,0.00,28.7,27.9,00.0,37.6,30.5,07.4,0000.0,0007.55,0002.85,0001.51
2022-04-09 05:56:00,,0823.0,4.99,0.00,28.7,27.9,00.0,37.6,30.5,07.4,0000.0,0007.66,0002.76,0001.49
2022-04-09 05:57:00,,0823.0,5.00,0.00,28.7,27.9,00.0,37.6,30.5,07.4,0000.0,0007.95,0002.84,0001.48
2022-04-09 05:58:00,,0823.0,5.01,0.00,28.7,27.9,00.0,37.6,30.5,07.4,0000.0,0008.76,0002.92,0001.48
2022-04-09 05:59:00,,0822.9,5.00,0.00,28.7,27.9,00.0,37.6,30.5,07.4,0000.0,0009.00,0002.96,0001.48
